DW8305 Weather Reports


time (UTC)temp
C
wind
direction
speed
KPH
gust
KPH
rain 1hr
cm
rain 24hr
cm
rain mn
cm
humidity
%
barometer
mb
20260509114916 15 113 1.6 4.8 0.00 0.00 0.00 70 1021.3
20260509113916 15 113 4.8 6.4 0.00 0.00 0.00 69 1021.4
20260509112915 15 113 3.2 6.4 0.00 0.00 0.00 70 1021.5
20260509111915 15 135 4.8 11.3 0.00 0.00 0.00 68 1021.5
20260509110915 15 113 6.4 9.7 0.00 0.00 0.00 69 1021.5
20260509105916 15 113 3.2 4.8 0.00 0.00 0.00 68 1021.6
20260509104915 15 68 4.8 9.7 0.00 0.00 0.00 70 1021.7
20260509103916 15 90 8.0 12.9 0.00 0.00 0.00 72 1021.9
20260509102915 15 113 8.0 9.7 0.00 0.00 0.00 71 1021.8
20260509101915 15 135 8.0 14.5 0.00 0.00 0.00 73 1021.9
20260509100916 15 135 6.4 11.3 0.00 0.00 0.00 74 1021.9
20260509095915 14 135 9.7 12.9 0.00 0.00 0.00 74 1021.9
20260509094916 14 135 8.0 14.5 0.00 0.00 0.00 75 1022.0
20260509093915 15 135 4.8 6.4 0.00 0.00 0.00 75 1022.0
20260509093008 15 135 3.2 4.8 0.00 0.00 0.00 75 1022.0
20260509091916 14 113 4.8 6.4 0.00 0.00 0.00 77 1022.1
20260509090917 14 135 6.4 9.7 0.00 0.00 0.00 77 1022.1
20260509085918 14 135 3.2 8.0 0.00 0.00 0.00 77 1022.1
20260509084917 13 113 4.8 8.0 0.00 0.00 0.00 78 1022.0
20260509083918 13 135 4.8 9.7 0.00 0.00 0.00 79 1022.1
20260509082917 13 113 3.2 4.8 0.00 0.00 0.00 79 1022.1
20260509081918 13 113 4.8 8.0 0.00 0.00 0.00 80 1022.1
20260509080957 13 90 4.8 8.0 0.00 0.00 0.00 82 1022.2
20260509075917 12 68 1.6 3.2 0.00 0.00 0.00 83 1022.1
20260509074917 12 135 1.6 3.2 0.00 0.00 0.00 85 1022.1
20260509073917 12 158 4.8 6.4 0.00 0.00 0.00 84 1022.1
20260509072937 12 135 3.2 6.4 0.00 0.00 0.00 85 1022.1
20260509071917 12 90 1.6 4.8 0.00 0.00 0.00 86 1022.2
20260509070918 11 68 1.6 3.2 0.00 0.00 0.00 88 1022.2
20260509065958 11 113 3.2 4.8 0.00 0.00 0.00 88 1022.1
20260509064917 11 90 4.8 8.0 0.00 0.00 0.00 88 1022.2
20260509063918 11 0.0 1.6 0.00 0.00 0.00 89 1022.1
20260509062937 10 0.0 1.6 0.00 0.00 0.00 90 1022.1
20260509061917 10 68 1.6 3.2 0.00 0.00 0.00 91 1022.1
20260509060917 10 90 1.6 3.2 0.00 0.00 0.00 91 1022.0
20260509055917 10 68 3.2 4.8 0.00 0.00 0.00 91 1022.0
20260509054917 10 90 3.2 4.8 0.00 0.00 0.00 92 1022.0
20260509053918 9 113 1.6 3.2 0.00 0.00 0.00 92 1022.0
20260509052918 9 0.0 0.0 0.00 0.00 0.00 92 1022.1
20260509051937 8 0.0 1.6 0.00 0.00 0.00 92 1022.1
20260509050917 8 90 1.6 1.6 0.00 0.00 0.00 92 1022.0
20260509045917 8 68 3.2 3.2 0.00 0.00 0.00 92 1022.0
20260509044917 8 0.0 1.6 0.00 0.00 0.00 92 1022.0
20260509043917 8 0.0 0.0 0.00 0.00 0.00 92 1021.9
20260509042917 8 0.0 1.6 0.00 0.00 0.00 92 1021.9
20260509041918 8 0.0 0.0 0.00 0.00 0.00 92 1021.9
20260509040917 8 0.0 0.0 0.00 0.00 0.00 92 1021.9
20260509035917 8 0.0 1.6 0.00 0.00 0.00 92 1022.0
20260509034917 8 0.0 1.6 0.00 0.00 0.00 92 1022.0
20260509033917 8 90 1.6 3.2 0.00 0.00 0.00 92 1022.0
20260509032917 8 90 1.6 3.2 0.00 0.00 0.00 92 1022.1
20260509031917 8 90 1.6 1.6 0.00 0.00 0.00 92 1022.1
20260509030917 8 90 1.6 3.2 0.00 0.00 0.00 92 1022.1
20260509025917 8 45 1.6 1.6 0.00 0.00 0.00 92 1022.1
20260509024937 8 90 1.6 3.2 0.00 0.00 0.00 92 1022.1
20260509023957 8 0.0 1.6 0.00 0.00 0.00 92 1022.1
20260509022957 8 0.0 1.6 0.00 0.00 0.00 92 1022.2
20260509021917 8 0.0 0.0 0.00 0.00 0.00 92 1022.3
20260509020937 8 0.0 0.0 0.00 0.00 0.00 92 1022.3
20260509015937 8 45 1.6 3.2 0.00 0.00 0.00 92 1022.3
20260509014917 8 0.0 1.6 0.00 0.00 0.00 92 1022.3
20260509013917 8 0.0 1.6 0.00 0.00 0.00 92 1022.3
20260509012937 8 0.0 0.0 0.00 0.00 0.00 92 1022.2
20260509011917 8 0.0 0.0 0.00 0.00 0.00 92 1022.2
20260509010937 8 0.0 1.6 0.00 0.00 0.00 92 1022.1
20260509005917 8 0.0 0.0 0.00 0.00 0.00 92 1022.2
20260509004917 7 0.0 0.0 0.00 0.00 0.00 92 1022.2
20260509003917 7 0.0 1.6 0.00 0.00 0.00 92 1022.2
20260509002917 8 0.0 0.0 0.00 0.00 0.00 92 1022.2
20260509001937 8 0.0 0.0 0.00 0.00 0.00 92 1022.1
20260509000917 8 0.0 1.6 0.00 0.00 0.00 92 1022.1
20260508235917 8 0.0 0.0 0.00 0.00 0.00 91 1022.1
20260508234917 8 0.0 0.0 0.00 0.00 0.00 91 1022.2
20260508233917 8 0.0 0.0 0.00 0.00 0.00 90 1022.1
20260508232917 9 0.0 1.6 0.00 0.00 0.00 90 1022.1
20260508231917 9 0.0 1.6 0.00 0.00 0.00 89 1022.2
20260508230917 10 0.0 0.0 0.00 0.00 0.00 89 1022.1
20260508225937 10 0.0 1.6 0.00 0.00 0.00 88 1022.2
20260508224917 10 0.0 1.6 0.00 0.00 0.00 88 1022.2
20260508223937 10 90 1.6 3.2 0.00 0.00 0.00 87 1022.2
20260508222917 10 0.0 3.2 0.00 0.00 0.00 87 1022.2
20260508221937 10 68 3.2 3.2 0.00 0.00 0.00 87 1022.2
20260508220937 10 68 1.6 3.2 0.00 0.00 0.00 87 1022.2
20260508215916 10 68 1.6 4.8 0.00 0.00 0.00 87 1022.2
20260508214936 10 68 3.2 4.8 0.00 0.00 0.00 87 1022.2
20260508213916 10 68 3.2 4.8 0.00 0.00 0.00 86 1022.2
20260508212916 10 0.0 3.2 0.00 0.00 0.00 86 1022.2
20260508211936 11 90 1.6 1.6 0.00 0.00 0.00 86 1022.3
20260508210916 11 135 1.6 1.6 0.00 0.00 0.00 85 1022.1
20260508205916 11 0.0 0.0 0.00 0.00 0.00 85 1022.1
20260508204916 11 0.0 0.0 0.00 0.00 0.00 85 1022.1
20260508203916 11 0.0 0.0 0.00 0.00 0.00 85 1022.0
20260508202916 11 0.0 0.0 0.00 0.00 0.00 85 1021.9
20260508201916 11 0.0 0.0 0.00 0.00 0.00 84 1022.0
20260508200915 11 0.0 0.0 0.00 0.00 0.00 83 1022.0
20260508195916 11 0.0 1.6 0.00 0.00 0.00 82 1021.9
20260508194916 11 135 1.6 3.2 0.00 0.00 0.00 82 1021.8
20260508193936 11 0.0 1.6 0.00 0.00 0.00 82 1021.7
20260508192916 11 0.0 1.6 0.00 0.00 0.00 81 1021.8
20260508191916 11 135 1.6 3.2 0.00 0.00 0.00 81 1021.7
20260508190916 12 135 1.6 4.8 0.00 0.00 0.00 80 1021.5
20260508185916 12 135 3.2 4.8 0.00 0.00 0.00 79 1021.4
20260508184915 12 135 3.2 6.4 0.00 0.00 0.00 79 1021.3
20260508183915 12 135 3.2 6.4 0.00 0.00 0.00 79 1021.2
20260508182915 12 158 1.6 3.2 0.00 0.00 0.00 77 1021.2
20260508181915 12 158 1.6 4.8 0.00 0.00 0.00 76 1021.2
20260508180916 12 135 3.2 4.8 0.00 0.00 0.00 75 1021.1
20260508175916 13 135 3.2 4.8 0.00 0.00 0.00 74 1021.1
20260508174915 13 135 1.6 4.8 0.00 0.00 0.00 73 1021.1
20260508173936 13 135 3.2 6.4 0.00 0.00 0.00 71 1021.1
20260508172936 13 135 4.8 9.7 0.00 0.00 0.00 71 1021.1
20260508171916 13 135 4.8 8.0 0.00 0.00 0.00 71 1021.0
20260508170915 13 113 1.6 3.2 0.00 0.00 0.00 70 1020.9
20260508165915 13 135 1.6 1.6 0.00 0.00 0.00 69 1020.9
20260508164916 13 135 4.8 6.4 0.00 0.00 0.00 68 1020.8
20260508163916 13 90 1.6 3.2 0.00 0.00 0.00 68 1020.8
20260508162916 13 90 1.6 3.2 0.00 0.00 0.00 67 1020.8
20260508161916 14 90 1.6 3.2 0.00 0.00 0.00 67 1020.8
20260508160936 14 135 4.8 9.7 0.00 0.00 0.00 67 1020.5
20260508155916 14 203 1.6 1.6 0.00 0.00 0.00 65 1020.7
20260508154936 14 113 1.6 4.8 0.00 0.00 0.00 65 1020.7
20260508153916 14 0.0 3.2 0.00 0.00 0.00 65 1020.7
20260508152916 14 158 3.2 8.0 0.00 0.00 0.00 65 1020.8
20260508151916 14 135 4.8 8.0 0.00 0.00 0.00 65 1020.7
20260508150915 14 113 4.8 6.4 0.00 0.00 0.00 61 1020.7
20260508145916 14 135 4.8 9.7 0.00 0.00 0.00 62 1020.7
20260508144915 15 113 8.0 14.5 0.00 0.00 0.00 62 1020.7
20260508143935 14 135 4.8 8.0 0.00 0.00 0.00 63 1020.7
20260508142916 14 135 8.0 11.3 0.00 0.00 0.00 61 1020.7
20260508141915 15 135 9.7 14.5 0.00 0.00 0.00 62 1020.7
20260508140916 15 135 6.4 11.3 0.00 0.00 0.00 63 1020.7
20260508135915 14 113 6.4 9.7 0.00 0.00 0.00 63 1020.8
20260508135016 14 135 3.2 6.4 0.00 0.00 0.00 63 1020.8
20260508133935 14 135 6.4 11.3 0.00 0.00 0.00 62 1020.9
20260508132915 15 158 3.2 4.8 0.00 0.00 0.00 61 1020.8
20260508131915 15 113 6.4 12.9 0.00 0.00 0.00 62 1020.8
20260508130916 15 158 6.4 9.7 0.00 0.00 0.00 61 1020.9
20260508125915 15 113 6.4 12.9 0.00 0.00 0.00 58 1021.0
20260508124915 15 135 4.8 8.0 0.00 0.00 0.00 60 1021.0
20260508123916 16 135 6.4 8.0 0.00 0.00 0.00 57 1021.0
20260508122916 16 135 9.7 16.1 0.00 0.00 0.00 56 1021.0
20260508121915 16 225 4.8 14.5 0.00 0.00 0.00 58 1021.1
20260508120915 16 135 4.8 8.0 0.00 0.00 0.00 56 1021.1
20260508115916 16 225 3.2 6.4 0.00 0.00 0.00 58 1021.1